2021/06/21 23:22:40+0000,-41.09,-47.65,-31.67,-49.86,-55.89,-56.50
2021/06/21 23:23:32+0000,-41.61,-48.19,-31.94,-50.40,-55.80,-56.80
2021/06/21 23:24:24+0000,-41.26,-47.98,-31.52,-50.08,-52.64,-56.62
2021/06/21 23:25:16+0000,-41.34,-48.14,-31.67,-49.63,-52.57,-56.85
2021/06/21 23:26:08+0000,-41.46,-47.11,-31.18,-48.53,-55.78,-56.74
2021/06/21 23:27:00+0000,-41.21,-48.15,-31.81,-49.51,-56.14,-56.72
2021/06/21 23:27:52+0000,-41.50,-47.99,-31.45,-49.99,-52.42,-57.10
2021/06/21 23:28:44+0000,-40.25,-48.14,-31.55,-49.20,-55.94,-56.91
2021/06/21 23:29:36+0000,-41.96,-46.92,-31.61,-49.41,-55.45,-56.54
2021/06/21 23:30:28+0000,-41.60,-47.47,-31.78,-49.57,-56.10,-56.47
2021/06/21 23:31:32+0000,-40.70,-47.73,-31.49,-49.85,-55.54,-57.12
2021/06/21 23:32:24+0000,-42.49,-48.49,-31.18,-49.79,-56.09,-56.64
2021/06/21 23:33:16+0000,-41.48,-48.61,-31.68,-50.43,-55.41,-56.60
2021/06/21 23:34:08+0000,-41.16,-47.87,-31.34,-49.77,-56.16,-56.84
2021/06/21 23:35:00+0000,-40.85,-48.15,-31.55,-50.30,-55.22,-56.98
2021/06/21 23:35:52+0000,-41.11,-49.30,-31.06,-48.68,-55.86,-56.40
2021/06/21 23:36:44+0000,-41.88,-48.33,-31.48,-49.81,-55.96,-56.67
2021/06/21 23:37:36+0000,-41.64,-48.75,-31.64,-49.79,-56.10,-56.75
2021/06/21 23:38:28+0000,-41.34,-47.75,-31.79,-50.15,-55.69,-56.98
2021/06/21 23:39:20+0000,-41.49,-48.12,-31.50,-49.97,-55.47,-56.55
2021/06/21 23:40:12+0000,-41.52,-47.54,-31.36,-49.26,-55.48,-56.79
2021/06/21 23:41:15+0000,-41.90,-47.69,-31.33,-48.38,-55.06,-55.92
2021/06/21 23:42:07+0000,-41.60,-48.65,-31.89,-49.19,-54.52,-55.83
2021/06/21 23:42:59+0000,-41.98,-48.42,-31.58,-49.71,-54.93,-56.30
2021/06/21 23:43:51+0000,-41.71,-48.50,-31.24,-49.33,-55.57,-56.37
2021/06/21 23:44:43+0000,-41.12,-47.70,-31.82,-49.61,-55.51,-55.69
2021/06/21 23:45:35+0000,-41.26,-48.36,-31.64,-49.45,-55.40,-55.99
2021/06/21 23:46:27+0000,-41.05,-48.27,-31.60,-49.23,-55.27,-55.77
2021/06/21 23:47:19+0000,-41.05,-47.47,-31.21,-49.14,-55.04,-56.16
2021/06/21 23:48:11+0000,-41.02,-47.31,-31.11,-48.90,-54.77,-55.73
2021/06/21 23:49:03+0000,-41.27,-48.23,-32.15,-49.28,-55.43,-55.60
2021/06/21 23:49:55+0000,-40.65,-48.66,-32.01,-49.57,-54.95,-55.85
2021/06/21 23:50:47+0000,-41.17,-48.41,-32.00,-49.45,-54.98,-55.77
2021/06/21 23:51:47+0000,-40.80,-47.48,-31.63,-49.61,-55.50,-56.01
2021/06/21 23:52:39+0000,-40.67,-47.36,-31.69,-49.35,-55.15,-56.02
2021/06/21 23:53:31+0000,-40.95,-47.59,-31.24,-49.38,-55.32,-55.42
2021/06/21 23:54:23+0000,-40.65,-47.20,-32.15,-50.10,-55.30,-55.22
2021/06/21 23:55:15+0000,-41.28,-48.41,-32.04,-49.54,-55.13,-55.85
2021/06/21 23:56:07+0000,-40.76,-48.08,-31.67,-49.26,-54.72,-56.15
2021/06/21 23:56:59+0000,-40.59,-48.59,-31.58,-49.32,-54.78,-56.12
2021/06/21 23:57:51+0000,-41.17,-46.96,-31.81,-48.97,-55.19,-56.13
2021/06/21 23:58:43+0000,-40.51,-48.57,-31.42,-49.23,-55.42,-55.53
2021/06/21 23:59:35+0000,-41.68,-48.25,-31.56,-49.16,-54.61,-55.84
2021/06/22 00:00:27+0000,-41.51,-48.51,-31.82,-49.23,-54.53,-55.30
2021/06/22 00:01:33+0000,-40.67,-48.09,-31.64,-50.06,-55.24,-55.96
2021/06/22 00:02:25+0000,-40.67,-48.35,-31.54,-49.73,-54.80,-55.60
2021/06/22 00:03:17+0000,-41.36,-47.54,-31.75,-49.56,-55.59,-55.81
2021/06/22 00:04:09+0000,-41.50,-46.73,-31.48,-49.24,-55.29,-55.86
2021/06/22 00:05:01+0000,-42.09,-47.94,-31.45,-49.12,-55.45,-55.59
2021/06/22 00:05:53+0000,-40.91,-47.11,-31.37,-49.25,-55.00,-55.31
2021/06/22 00:06:45+0000,-41.41,-48.25,-32.22,-49.12,-55.08,-56.26
2021/06/22 00:07:37+0000,-41.10,-47.00,-32.02,-48.48,-55.08,-55.77
2021/06/22 00:08:29+0000,-41.70,-47.77,-32.01,-49.43,-54.97,-55.84
2021/06/22 00:09:21+0000,-41.33,-49.60,-31.40,-49.17,-55.24,-56.62
2021/06/22 00:10:13+0000,-41.11,-49.02,-31.93,-48.88,-55.81,-55.78
2021/06/22 00:11:13+0000,-41.49,-47.47,-31.88,-49.96,-55.53,-55.97
2021/06/22 00:12:05+0000,-40.84,-48.27,-32.23,-49.09,-55.22,-56.48
2021/06/22 00:12:57+0000,-40.97,-48.08,-31.75,-49.16,-55.17,-55.69
2021/06/22 00:13:49+0000,-40.77,-46.82,-32.51,-47.94,-55.66,-55.99
2021/06/22 00:14:41+0000,-41.72,-47.52,-31.74,-49.34,-54.88,-56.57
2021/06/22 00:15:33+0000,-40.16,-46.87,-31.81,-49.21,-55.62,-56.71
2021/06/22 00:16:25+0000,-41.07,-47.78,-32.12,-47.40,-55.68,-55.54
2021/06/22 00:17:17+0000,-40.36,-47.56,-31.71,-48.89,-55.27,-56.70
2021/06/22 00:18:09+0000,-40.66,-46.87,-31.77,-48.95,-55.01,-56.38
2021/06/22 00:19:01+0000,-40.71,-48.07,-32.16,-49.06,-55.22,-56.27
2021/06/22 00:19:53+0000,-39.98,-48.99,-32.08,-49.20,-55.62,-56.30
2021/06/22 00:20:45+0000,-39.73,-47.66,-32.25,-49.33,-55.67,-56.19
2021/06/22 00:21:45+0000,-40.51,-46.75,-31.51,-49.42,-54.88,-56.45
2021/06/22 00:22:37+0000,-40.06,-47.42,-31.84,-49.34,-55.55,-56.12
2021/06/22 00:23:29+0000,-40.52,-48.70,-31.72,-49.09,-55.43,-55.50
2021/06/22 00:24:21+0000,-40.70,-48.60,-32.38,-49.12,-55.14,-56.11
2021/06/22 00:25:13+0000,-40.82,-46.77,-31.74,-48.83,-55.59,-55.61
2021/06/22 00:26:05+0000,-40.11,-48.37,-31.80,-49.55,-54.64,-55.50
2021/06/22 00:26:57+0000,-40.51,-47.40,-32.03,-48.42,-54.53,-56.17
2021/06/22 00:27:49+0000,-40.72,-48.09,-31.91,-49.96,-55.40,-55.89
2021/06/22 00:28:41+0000,-41.19,-47.42,-32.26,-50.22,-55.54,-56.04
2021/06/22 00:29:33+0000,-40.15,-48.47,-31.73,-49.25,-55.00,-56.14
2021/06/22 00:30:26+0000,-40.73,-48.15,-31.81,-48.24,-54.70,-56.10
2021/06/22 00:31:25+0000,-39.73,-47.17,-32.07,-47.06,-55.47,-55.83
2021/06/22 00:32:17+0000,-40.54,-48.37,-31.56,-49.40,-55.37,-56.04
2021/06/22 00:33:10+0000,-40.41,-48.83,-31.84,-48.81,-55.28,-56.11
2021/06/22 00:34:02+0000,-40.77,-48.78,-32.25,-48.19,-55.52,-55.71
2021/06/22 00:34:54+0000,-39.93,-48.76,-32.21,-48.36,-55.50,-55.94
2021/06/22 00:35:46+0000,-40.46,-47.80,-31.99,-48.55,-55.15,-56.13
2021/06/22 00:36:38+0000,-39.92,-48.35,-31.39,-48.58,-55.51,-56.18
2021/06/22 00:37:30+0000,-38.84,-48.49,-32.08,-48.29,-55.66,-56.13
2021/06/22 00:38:22+0000,-39.28,-48.07,-31.91,-48.35,-55.57,-55.63
2021/06/22 00:39:14+0000,-40.99,-48.13,-32.18,-47.95,-55.07,-56.64
2021/06/22 00:40:06+0000,-41.80,-48.43,-32.18,-49.25,-55.24,-56.49
2021/06/22 00:41:04+0000,-40.46,-50.53,-31.73,-49.50,-54.73,-55.96
2021/06/22 00:41:56+0000,-41.18,-50.69,-31.22,-49.44,-54.45,-55.95
2021/06/22 00:42:48+0000,-40.35,-49.93,-31.53,-49.55,-54.40,-56.46
2021/06/22 00:43:40+0000,-39.39,-49.98,-32.52,-48.66,-55.26,-55.50
2021/06/22 00:44:32+0000,-39.13,-50.30,-31.68,-48.68,-54.97,-55.84
2021/06/22 00:45:24+0000,-41.44,-50.61,-32.15,-48.88,-54.75,-56.46
2021/06/22 00:46:16+0000,-41.42,-49.84,-31.74,-48.52,-54.91,-56.27
2021/06/22 00:47:08+0000,-39.76,-49.58,-31.69,-48.97,-54.54,-56.64
2021/06/22 00:48:00+0000,-41.53,-49.75,-32.18,-49.49,-53.63,-56.67
2021/06/22 00:48:52+0000,-41.40,-50.14,-32.20,-48.02,-55.20,-56.72
2021/06/22 00:49:44+0000,-40.83,-50.88,-31.62,-48.52,-54.82,-56.28
2021/06/22 00:50:36+0000,-40.79,-50.06,-31.61,-48.61,-54.38,-56.62
2021/06/22 00:51:36+0000,-40.52,-50.45,-31.41,-49.24,-54.58,-56.50
2021/06/22 00:52:28+0000,-41.82,-49.92,-32.29,-50.28,-54.66,-56.47
2021/06/22 00:53:20+0000,-41.42,-51.07,-31.75,-50.03,-55.08,-55.49
2021/06/22 00:54:12+0000,-42.17,-50.11,-31.21,-49.51,-54.58,-56.15
2021/06/22 00:55:04+0000,-41.06,-50.58,-32.05,-50.51,-54.69,-56.10
2021/06/22 00:55:56+0000,-40.59,-50.68,-31.86,-47.96,-54.56,-56.44
2021/06/22 00:56:48+0000,-41.57,-49.25,-31.99,-49.79,-54.52,-56.35
2021/06/22 00:57:40+0000,-42.13,-49.64,-31.83,-49.36,-54.94,-56.51
2021/06/22 00:58:32+0000,-39.90,-49.69,-32.25,-48.62,-55.00,-56.13
2021/06/22 00:59:24+0000,-40.93,-50.08,-32.08,-48.98,-54.93,-56.15
2021/06/22 01:00:17+0000,-41.54,-49.91,-32.39,-48.27,-54.89,-56.05
2021/06/22 01:01:23+0000,-42.33,-50.68,-32.26,-48.49,-55.36,-56.00
2021/06/22 01:02:15+0000,-42.25,-50.28,-32.62,-48.39,-54.76,-56.45
2021/06/22 01:03:07+0000,-42.44,-49.48,-31.39,-48.11,-54.61,-55.93
2021/06/22 01:03:59+0000,-40.26,-49.90,-31.88,-48.51,-54.85,-55.86
2021/06/22 01:04:51+0000,-41.17,-49.62,-31.99,-48.15,-55.23,-56.38
2021/06/22 01:05:43+0000,-41.22,-50.01,-32.35,-48.52,-55.33,-55.93
2021/06/22 01:06:35+0000,-40.23,-50.11,-32.54,-48.59,-55.21,-56.48
2021/06/22 01:07:27+0000,-40.87,-50.28,-30.78,-49.68,-55.03,-56.47
2021/06/22 01:08:19+0000,-41.44,-50.81,-31.68,-49.86,-54.65,-56.15
2021/06/22 01:09:11+0000,-41.80,-50.42,-31.85,-48.59,-54.97,-56.60
2021/06/22 01:10:03+0000,-41.18,-50.00,-31.60,-50.15,-54.72,-56.41
2021/06/22 01:11:07+0000,-41.78,-50.10,-31.68,-48.38,-54.87,-56.78
2021/06/22 01:11:59+0000,-42.56,-50.25,-31.66,-49.00,-54.87,-55.82
2021/06/22 01:12:51+0000,-42.21,-50.43,-31.98,-48.50,-55.01,-56.09
2021/06/22 01:13:43+0000,-41.96,-49.58,-31.79,-47.97,-55.26,-56.96
2021/06/22 01:14:35+0000,-41.91,-49.67,-31.65,-48.14,-55.55,-56.28
2021/06/22 01:15:27+0000,-40.38,-50.41,-31.95,-48.52,-54.87,-55.82
2021/06/22 01:16:19+0000,-41.32,-49.89,-31.97,-50.19,-55.07,-56.21
2021/06/22 01:17:11+0000,-42.63,-50.17,-32.16,-48.54,-55.42,-56.66
2021/06/22 01:18:03+0000,-40.39,-49.92,-31.56,-49.58,-54.53,-56.32
2021/06/22 01:18:55+0000,-39.61,-49.84,-32.01,-48.94,-54.96,-56.51
2021/06/22 01:19:48+0000,-40.05,-50.31,-31.79,-48.90,-55.60,-56.57
2021/06/22 01:20:40+0000,-39.40,-49.30,-32.02,-48.16,-54.83,-56.92
2021/06/22 01:21:40+0000,-39.19,-49.44,-31.91,-47.64,-55.45,-56.81
2021/06/22 01:22:32+0000,-39.58,-50.40,-32.25,-48.87,-55.23,-56.07
2021/06/22 01:23:24+0000,-38.54,-49.72,-31.67,-49.73,-54.81,-56.45
2021/06/22 01:24:16+0000,-39.20,-49.55,-31.78,-47.58,-54.60,-56.37
2021/06/22 01:25:08+0000,-39.53,-49.97,-32.03,-48.17,-55.04,-56.97
2021/06/22 01:26:00+0000,-40.62,-50.08,-31.61,-49.36,-54.25,-56.76
2021/06/22 01:26:52+0000,-41.42,-49.78,-32.35,-49.48,-55.16,-56.51
2021/06/22 01:27:44+0000,-41.60,-50.15,-32.03,-48.57,-54.74,-56.34
2021/06/22 01:28:36+0000,-40.57,-49.76,-31.62,-47.73,-54.73,-56.84
2021/06/22 01:29:28+0000,-40.56,-49.84,-32.33,-49.37,-54.87,-56.64
2021/06/22 01:30:20+0000,-39.41,-49.70,-32.14,-49.70,-54.92,-56.39
2021/06/22 01:31:20+0000,-40.01,-50.58,-31.99,-48.66,-55.02,-56.96
2021/06/22 01:32:12+0000,-40.45,-49.99,-32.52,-49.23,-55.32,-56.42
2021/06/22 01:33:04+0000,-40.92,-50.32,-31.44,-49.76,-54.77,-56.49
2021/06/22 01:33:56+0000,-40.41,-49.81,-32.00,-49.67,-54.84,-56.84
2021/06/22 01:34:48+0000,-39.78,-49.57,-31.70,-49.43,-54.70,-56.58
2021/06/22 01:35:40+0000,-40.85,-49.95,-32.26,-48.90,-55.16,-56.54
2021/06/22 01:36:32+0000,-41.16,-49.68,-31.81,-49.66,-54.62,-56.58
2021/06/22 01:37:24+0000,-40.30,-49.44,-32.22,-49.48,-55.29,-56.21
2021/06/22 01:38:16+0000,-40.14,-50.01,-31.53,-47.96,-54.84,-55.72
2021/06/22 01:39:08+0000,-38.74,-49.75,-31.27,-49.11,-54.94,-56.38
2021/06/22 01:40:01+0000,-40.44,-50.25,-32.14,-49.65,-54.98,-56.20
2021/06/22 01:40:59+0000,-40.07,-49.55,-31.88,-49.36,-55.60,-56.49
2021/06/22 01:41:51+0000,-40.31,-50.34,-32.15,-50.27,-55.47,-56.70
2021/06/22 01:42:43+0000,-40.06,-50.00,-32.06,-48.54,-54.73,-56.12
2021/06/22 01:43:35+0000,-39.26,-50.30,-31.85,-49.24,-54.96,-56.58
2021/06/22 01:44:27+0000,-38.99,-50.04,-31.82,-49.30,-54.69,-56.87
2021/06/22 01:45:19+0000,-40.24,-49.38,-32.28,-50.04,-55.10,-56.17
2021/06/22 01:46:11+0000,-40.31,-50.24,-32.06,-49.38,-55.53,-56.50
2021/06/22 01:47:03+0000,-40.42,-49.87,-32.34,-48.88,-55.41,-56.72
2021/06/22 01:47:55+0000,-39.29,-49.68,-32.04,-49.21,-55.16,-56.70
2021/06/22 01:48:47+0000,-39.89,-49.72,-31.85,-49.88,-55.44,-56.25
2021/06/22 01:49:39+0000,-38.08,-49.05,-31.87,-49.89,-55.39,-56.60
2021/06/22 01:50:31+0000,-38.25,-49.63,-32.70,-48.52,-55.12,-56.28
2021/06/22 01:51:31+0000,-38.68,-49.25,-31.84,-47.93,-55.72,-56.34
2021/06/22 01:52:23+0000,-38.99,-49.61,-31.85,-49.37,-55.59,-57.00
2021/06/22 01:53:16+0000,-39.28,-49.01,-32.02,-49.50,-54.90,-56.77
2021/06/22 01:54:08+0000,-40.42,-49.54,-31.27,-48.47,-55.92,-56.41
2021/06/22 01:55:00+0000,-39.52,-48.93,-32.33,-49.37,-55.32,-56.83
2021/06/22 01:55:52+0000,-39.40,-49.46,-31.62,-49.49,-55.51,-56.84
2021/06/22 01:56:44+0000,-40.90,-49.91,-32.44,-49.84,-55.43,-56.56
2021/06/22 01:57:36+0000,-40.82,-49.32,-32.16,-50.85,-56.42,-56.53
2021/06/22 01:58:28+0000,-41.59,-49.09,-31.54,-50.12,-54.95,-56.36
2021/06/22 01:59:20+0000,-39.92,-48.71,-32.59,-49.90,-55.05,-56.69
2021/06/22 02:00:12+0000,-41.26,-46.65,-30.85,-48.98,-55.13,-56.89
2021/06/22 02:01:11+0000,-39.62,-46.56,-32.51,-49.88,-55.36,-56.54
2021/06/22 02:02:03+0000,-39.75,-45.63,-31.52,-49.99,-55.44,-56.20
2021/06/22 02:02:55+0000,-40.70,-46.96,-32.05,-49.04,-55.01,-56.63
2021/06/22 02:03:47+0000,-39.95,-47.39,-32.00,-49.90,-55.04,-56.70
2021/06/22 02:04:39+0000,-39.58,-47.27,-31.81,-48.60,-54.84,-56.06
2021/06/22 02:05:31+0000,-40.28,-47.55,-31.61,-49.10,-54.96,-56.03
2021/06/22 02:06:23+0000,-39.38,-47.40,-32.22,-48.88,-55.75,-56.28
2021/06/22 02:07:15+0000,-38.74,-48.37,-32.06,-49.39,-55.60,-56.61
2021/06/22 02:08:07+0000,-39.92,-46.82,-31.45,-48.65,-55.32,-56.19
2021/06/22 02:08:59+0000,-39.79,-46.85,-32.45,-49.59,-54.80,-56.53
2021/06/22 02:09:51+0000,-40.39,-47.09,-32.72,-49.10,-56.07,-56.30
2021/06/22 02:10:43+0000,-40.76,-46.57,-32.32,-49.27,-55.66,-56.39
2021/06/22 02:12:18+0000,-41.49,-47.38,-32.94,-49.50,-55.62,-56.34
2021/06/22 02:13:10+0000,-41.08,-46.99,-31.60,-48.42,-55.17,-56.41
2021/06/22 02:14:02+0000,-40.88,-46.49,-31.70,-48.50,-55.37,-56.20
2021/06/22 02:14:54+0000,-40.77,-46.26,-32.16,-49.26,-56.08,-56.34
2021/06/22 02:15:46+0000,-42.37,-46.58,-32.13,-49.27,-55.85,-56.28
2021/06/22 02:16:38+0000,-40.13,-46.59,-30.81,-48.56,-55.34,-56.50
2021/06/22 02:17:30+0000,-40.69,-46.65,-30.70,-48.61,-55.19,-56.46
2021/06/22 02:18:22+0000,-41.60,-48.31,-32.46,-48.85,-55.58,-56.25
2021/06/22 02:19:14+0000,-41.50,-49.46,-32.05,-48.12,-55.71,-56.92
2021/06/22 02:20:06+0000,-40.81,-49.66,-30.37,-48.82,-55.03,-56.56
2021/06/22 02:22:48+0000,-40.17,-46.52,-31.77,-49.20,-54.98,-56.71
2021/06/22 02:23:40+0000,-41.40,-45.91,-31.57,-49.26,-55.37,-55.97
2021/06/22 02:24:32+0000,-41.58,-46.29,-30.88,-48.48,-54.78,-56.36
2021/06/22 02:25:24+0000,-40.66,-47.31,-32.04,-48.57,-54.93,-56.41
2021/06/22 02:26:17+0000,-41.44,-47.54,-32.20,-48.98,-54.99,-56.71
2021/06/22 02:27:09+0000,-41.90,-46.97,-31.99,-49.05,-54.41,-56.38
2021/06/22 02:28:01+0000,-40.16,-46.83,-32.20,-47.32,-55.26,-57.05
2021/06/22 02:28:53+0000,-41.52,-47.16,-32.46,-48.42,-55.31,-56.57
2021/06/22 02:29:45+0000,-41.77,-46.05,-32.31,-49.14,-55.28,-56.80
2021/06/22 02:30:37+0000,-41.10,-48.93,-31.74,-48.71,-55.23,-56.63
2021/06/22 02:34:06+0000,-41.67,-47.73,-31.91,-49.20,-55.53,-56.20
2021/06/22 02:34:58+0000,-41.94,-46.82,-31.59,-49.19,-55.36,-56.28
2021/06/22 02:35:50+0000,-39.82,-47.16,-31.90,-48.68,-54.89,-56.27
2021/06/22 02:36:42+0000,-41.68,-47.40,-31.60,-48.50,-55.99,-56.66
2021/06/22 02:37:34+0000,-41.19,-46.59,-31.88,-49.81,-55.16,-56.15
2021/06/22 02:38:26+0000,-39.76,-46.28,-32.18,-48.70,-54.85,-56.89
2021/06/22 02:39:18+0000,-41.53,-46.91,-32.89,-48.88,-54.81,-56.48
2021/06/22 02:40:10+0000,-40.31,-46.16,-32.29,-48.57,-55.04,-56.75
2021/06/22 02:41:10+0000,-40.97,-47.36,-32.15,-48.60,-55.85,-56.62
2021/06/22 02:42:02+0000,-41.21,-46.50,-31.95,-48.25,-55.85,-56.55
2021/06/22 02:42:54+0000,-39.95,-47.08,-32.09,-49.10,-55.66,-56.44
2021/06/22 02:43:46+0000,-41.37,-47.47,-31.61,-48.49,-55.19,-56.64
2021/06/22 02:44:38+0000,-40.84,-48.13,-31.48,-48.98,-55.85,-56.50
2021/06/22 02:45:30+0000,-41.04,-47.26,-31.91,-48.70,-55.39,-56.88
2021/06/22 02:46:22+0000,-39.60,-47.41,-32.41,-48.48,-55.27,-56.69
2021/06/22 02:47:14+0000,-39.12,-46.30,-31.77,-48.50,-55.10,-56.90
2021/06/22 02:48:06+0000,-39.50,-46.61,-31.69,-49.01,-55.96,-56.18
2021/06/22 02:48:58+0000,-40.90,-46.84,-32.72,-48.06,-55.30,-56.89
2021/06/22 02:49:50+0000,-40.96,-46.52,-31.92,-48.69,-55.74,-56.18
2021/06/22 02:50:42+0000,-41.59,-45.94,-31.91,-47.94,-55.96,-56.19
2021/06/22 02:51:42+0000,-40.26,-46.36,-32.03,-48.34,-55.39,-56.83
2021/06/22 02:52:34+0000,-41.83,-47.18,-31.93,-49.34,-55.17,-56.17
2021/06/22 02:53:26+0000,-42.15,-46.82,-32.04,-48.57,-55.74,-55.92
2021/06/22 02:54:18+0000,-41.31,-46.84,-31.73,-47.65,-55.04,-56.22
2021/06/22 02:55:10+0000,-41.23,-46.82,-31.93,-48.44,-55.67,-56.63
2021/06/22 02:56:02+0000,-41.24,-46.83,-31.45,-49.03,-55.21,-56.62
2021/06/22 02:56:54+0000,-41.11,-46.59,-31.70,-49.39,-56.30,-56.19
2021/06/22 02:57:46+0000,-41.08,-45.83,-31.36,-48.49,-55.53,-55.69
2021/06/22 02:58:38+0000,-41.62,-46.79,-31.54,-48.20,-55.54,-55.35
2021/06/22 02:59:30+0000,-41.00,-46.38,-31.48,-48.63,-55.76,-56.74
2021/06/22 03:00:22+0000,-40.88,-47.72,-32.24,-49.09,-55.47,-56.40
2021/06/22 03:01:23+0000,-41.08,-46.62,-31.82,-48.93,-55.58,-56.60
2021/06/22 03:02:15+0000,-42.49,-47.01,-31.61,-48.31,-55.65,-57.00
2021/06/22 03:03:07+0000,-41.60,-46.84,-31.76,-49.09,-55.98,-55.91
2021/06/22 03:03:59+0000,-41.70,-47.22,-32.32,-49.38,-55.47,-56.10
2021/06/22 03:04:51+0000,-41.60,-47.15,-31.08,-48.37,-55.27,-56.36
2021/06/22 03:05:43+0000,-41.91,-47.62,-31.70,-48.35,-55.46,-56.46
2021/06/22 03:06:35+0000,-41.97,-47.46,-31.36,-49.08,-55.35,-56.22
2021/06/22 03:07:27+0000,-41.11,-47.13,-31.82,-49.98,-55.84,-56.48
2021/06/22 03:08:19+0000,-41.87,-47.15,-31.76,-49.41,-55.51,-56.18
2021/06/22 03:09:11+0000,-41.14,-46.01,-31.87,-48.59,-55.60,-56.29
2021/06/22 03:10:03+0000,-40.12,-46.99,-31.65,-49.14,-55.50,-55.60
2021/06/22 03:11:03+0000,-42.60,-46.61,-32.03,-49.63,-55.56,-56.04
2021/06/22 03:11:55+0000,-41.35,-44.73,-31.98,-48.70,-55.54,-56.36
2021/06/22 03:12:47+0000,-41.41,-46.48,-31.77,-49.44,-55.26,-56.77
2021/06/22 03:13:39+0000,-40.94,-46.61,-32.02,-48.38,-55.52,-56.51
2021/06/22 03:14:31+0000,-42.31,-46.19,-31.27,-49.24,-55.43,-56.80
2021/06/22 03:15:23+0000,-40.78,-46.47,-31.68,-49.02,-55.66,-56.00
2021/06/22 03:16:16+0000,-41.58,-46.38,-32.35,-49.00,-55.40,-56.26
2021/06/22 03:17:08+0000,-41.69,-47.82,-31.82,-48.12,-55.86,-56.69
2021/06/22 03:18:00+0000,-41.62,-46.41,-32.05,-48.95,-55.72,-56.21
2021/06/22 03:18:52+0000,-42.17,-47.72,-32.29,-48.51,-55.02,-56.52
2021/06/22 03:19:44+0000,-41.28,-46.94,-31.54,-48.20,-55.40,-55.97
2021/06/22 03:20:36+0000,-41.58,-47.30,-32.38,-46.00,-55.10,-55.81
2021/06/22 03:21:36+0000,-40.80,-47.57,-31.69,-48.43,-55.39,-56.11
2021/06/22 03:22:28+0000,-42.05,-46.31,-32.11,-47.45,-55.52,-55.99
2021/06/22 03:23:20+0000,-42.02,-46.30,-32.00,-48.27,-55.38,-56.49
2021/06/22 03:24:12+0000,-41.56,-46.85,-31.98,-48.47,-55.43,-56.02
2021/06/22 03:25:04+0000,-41.39,-46.27,-31.66,-48.25,-55.25,-56.54
2021/06/22 03:25:56+0000,-41.77,-45.95,-32.00,-47.30,-55.64,-56.77
2021/06/22 03:26:48+0000,-39.97,-45.93,-32.22,-49.20,-55.27,-56.14
2021/06/22 03:27:40+0000,-40.32,-46.13,-31.77,-47.55,-55.29,-56.04
2021/06/22 03:28:32+0000,-42.10,-46.13,-31.54,-48.00,-55.24,-55.90
2021/06/22 03:29:24+0000,-41.49,-46.72,-31.63,-48.00,-54.80,-56.17
2021/06/22 03:30:16+0000,-40.17,-46.41,-32.24,-48.84,-54.87,-56.82
2021/06/22 03:31:15+0000,-41.06,-45.88,-32.18,-49.18,-55.28,-56.17
2021/06/22 03:32:07+0000,-40.38,-47.48,-32.20,-48.96,-55.49,-56.10
2021/06/22 03:32:59+0000,-40.82,-46.42,-31.62,-48.27,-55.29,-56.24
2021/06/22 03:33:51+0000,-41.91,-47.26,-31.83,-48.47,-55.20,-56.21
2021/06/22 03:34:43+0000,-40.80,-46.17,-31.62,-48.53,-54.91,-56.20
2021/06/22 03:35:35+0000,-41.46,-47.12,-31.91,-49.57,-55.05,-56.50
2021/06/22 03:36:27+0000,-41.39,-46.41,-31.45,-49.44,-55.21,-56.51
2021/06/22 03:37:19+0000,-40.93,-46.44,-31.70,-49.16,-54.73,-56.53
2021/06/22 03:38:11+0000,-42.03,-46.96,-31.67,-47.94,-55.57,-56.20
2021/06/22 03:39:03+0000,-41.42,-47.03,-31.25,-50.43,-55.65,-56.57
2021/06/22 03:39:55+0000,-41.82,-45.68,-31.97,-48.58,-55.78,-55.89
2021/06/22 03:40:47+0000,-42.93,-46.10,-31.55,-48.71,-54.65,-55.68
2021/06/22 03:41:47+0000,-40.64,-45.98,-31.36,-48.44,-55.48,-56.49
2021/06/22 03:42:39+0000,-41.89,-46.22,-31.46,-48.08,-56.01,-55.77
2021/06/22 03:43:31+0000,-42.49,-47.31,-31.38,-48.28,-55.35,-56.38
2021/06/22 03:44:23+0000,-42.56,-47.42,-31.64,-49.20,-54.81,-56.86
2021/06/22 03:45:15+0000,-42.00,-45.78,-31.62,-47.99,-55.16,-56.21
2021/06/22 03:46:07+0000,-41.88,-45.85,-31.52,-48.90,-54.98,-56.47
2021/06/22 03:47:00+0000,-42.53,-47.01,-31.81,-48.95,-55.49,-56.38
2021/06/22 03:47:52+0000,-42.60,-47.26,-31.30,-48.83,-55.15,-56.35
2021/06/22 03:48:44+0000,-42.22,-44.30,-31.61,-48.17,-54.67,-56.35
2021/06/22 03:49:36+0000,-42.08,-48.34,-31.53,-47.64,-54.83,-56.05
2021/06/22 03:50:28+0000,-41.80,-48.26,-31.98,-49.07,-55.15,-56.22
2021/06/22 03:51:27+0000,-41.81,-47.52,-31.33,-48.13,-55.34,-55.68
2021/06/22 03:52:19+0000,-41.01,-45.15,-31.05,-49.71,-54.88,-55.88
2021/06/22 03:53:11+0000,-42.31,-45.82,-31.05,-48.65,-54.25,-56.29
2021/06/22 03:54:03+0000,-41.91,-47.03,-31.51,-49.56,-54.84,-56.09
2021/06/22 03:54:55+0000,-41.04,-47.85,-31.50,-48.71,-54.97,-55.76
2021/06/22 03:55:47+0000,-42.17,-45.32,-31.11,-48.98,-55.32,-55.88
2021/06/22 03:56:40+0000,-42.20,-44.93,-31.14,-49.32,-55.30,-56.41
2021/06/22 03:57:32+0000,-40.35,-46.75,-31.29,-48.90,-55.19,-56.57
2021/06/22 03:58:24+0000,-42.23,-46.89,-31.63,-48.71,-55.56,-56.37
2021/06/22 03:59:16+0000,-42.32,-46.80,-31.57,-49.32,-54.36,-56.35
2021/06/22 04:00:08+0000,-42.28,-47.90,-31.35,-49.40,-55.45,-56.02
2021/06/22 04:01:09+0000,-41.49,-48.18,-31.05,-48.69,-55.17,-55.76
2021/06/22 04:02:01+0000,-41.66,-48.92,-31.37,-48.74,-54.90,-56.17
2021/06/22 04:02:53+0000,-41.85,-48.56,-31.01,-48.51,-54.85,-56.61
2021/06/22 04:03:45+0000,-41.84,-46.42,-31.43,-49.13,-55.30,-56.42
2021/06/22 04:04:37+0000,-41.69,-49.47,-31.47,-49.59,-55.56,-56.48
2021/06/22 04:05:29+0000,-42.68,-48.41,-30.92,-48.68,-55.53,-55.92
2021/06/22 04:06:21+0000,-41.16,-50.03,-30.94,-49.13,-55.44,-56.51
2021/06/22 04:07:13+0000,-41.22,-46.04,-31.50,-48.60,-54.85,-56.72
2021/06/22 04:08:05+0000,-41.11,-49.56,-30.81,-48.67,-54.83,-56.07
2021/06/22 04:08:57+0000,-41.38,-48.80,-31.59,-47.91,-55.26,-55.92
2021/06/22 04:09:49+0000,-41.18,-46.28,-31.26,-48.86,-54.35,-56.11
2021/06/22 04:10:41+0000,-42.05,-46.99,-31.47,-47.79,-54.62,-55.54
2021/06/22 04:11:41+0000,-42.11,-47.61,-31.30,-48.20,-55.21,-56.53
2021/06/22 04:12:33+0000,-41.35,-46.30,-30.91,-49.02,-54.63,-55.89
2021/06/22 04:13:25+0000,-40.96,-47.81,-31.39,-49.52,-55.44,-56.21
2021/06/22 04:14:17+0000,-41.78,-47.80,-31.47,-49.44,-55.63,-56.42
2021/06/22 04:15:09+0000,-42.13,-48.12,-31.74,-48.91,-56.06,-56.63
2021/06/22 04:16:01+0000,-41.66,-44.54,-30.84,-49.16,-55.44,-56.60
2021/06/22 04:16:53+0000,-42.00,-44.41,-31.71,-49.00,-55.05,-56.52
2021/06/22 04:17:45+0000,-42.56,-46.18,-31.27,-48.63,-55.58,-55.91
2021/06/22 04:18:37+0000,-41.55,-48.78,-31.45,-48.92,-55.28,-56.25
2021/06/22 04:19:29+0000,-42.47,-47.57,-31.11,-48.78,-54.76,-55.29
2021/06/22 04:20:21+0000,-41.74,-49.44,-30.83,-49.14,-55.61,-55.07
2021/06/22 04:21:22+0000,-41.26,-49.76,-31.53,-48.64,-55.46,-56.16
2021/06/22 04:22:14+0000,-42.34,-46.93,-31.13,-48.52,-55.18,-56.19
2021/06/22 04:23:06+0000,-41.76,-49.88,-31.38,-48.58,-55.90,-56.02
2021/06/22 04:23:58+0000,-42.08,-46.67,-31.27,-49.77,-55.76,-56.36
2021/06/22 04:24:50+0000,-42.28,-49.22,-31.07,-49.56,-55.07,-55.72
2021/06/22 04:25:42+0000,-41.63,-48.71,-31.57,-49.12,-55.81,-56.30
2021/06/22 04:26:34+0000,-41.31,-47.63,-31.52,-49.43,-55.74,-55.66
2021/06/22 04:27:26+0000,-42.27,-47.63,-30.98,-48.05,-56.03,-55.17
2021/06/22 04:28:18+0000,-41.88,-47.61,-30.91,-49.52,-55.58,-56.22
2021/06/22 04:29:10+0000,-41.88,-48.96,-31.02,-47.91,-55.63,-55.93
2021/06/22 04:30:03+0000,-40.38,-47.59,-31.32,-48.97,-55.32,-56.33
2021/06/22 04:31:03+0000,-39.94,-48.35,-31.32,-48.91,-55.18,-56.53
2021/06/22 04:31:55+0000,-40.88,-47.68,-31.01,-48.91,-55.72,-55.54
2021/06/22 04:32:47+0000,-41.65,-47.51,-31.77,-48.33,-55.81,-55.75
2021/06/22 04:33:39+0000,-41.50,-48.29,-31.15,-49.07,-56.05,-56.22
2021/06/22 04:34:31+0000,-43.09,-48.39,-31.31,-49.41,-55.59,-56.61
2021/06/22 04:35:23+0000,-42.50,-49.49,-31.22,-48.87,-54.81,-56.11
2021/06/22 04:36:15+0000,-42.14,-47.93,-31.23,-49.19,-55.38,-56.55
2021/06/22 04:37:07+0000,-42.64,-50.10,-31.14,-46.30,-54.68,-56.58
2021/06/22 04:37:59+0000,-41.96,-48.83,-31.39,-49.36,-55.49,-56.12
2021/06/22 04:38:51+0000,-42.35,-50.29,-30.77,-49.45,-55.63,-55.90
2021/06/22 04:39:43+0000,-42.34,-48.36,-31.75,-46.24,-55.70,-55.42
2021/06/22 04:40:35+0000,-42.92,-49.22,-31.11,-48.72,-56.18,-55.40
2021/06/22 04:41:34+0000,-42.04,-48.71,-31.39,-48.44,-55.70,-56.22